TimeCST,TemperatureF,Dew PointF,Humidity,Sea Level PressureIn,VisibilityMPH,Wind Direction,Wind SpeedMPH,Gust SpeedMPH,PrecipitationIn,Events,Conditions,WindDirDegrees,DateUTC
12:15 AM,53.6,50.0,88,30.14,10.0,Calm,Calm,-,N/A,,Clear,0,2012-11-20 06:15:00
12:35 AM,53.6,50.0,88,30.13,10.0,Calm,Calm,-,N/A,,Clear,0,2012-11-20 06:35:00
12:55 AM,51.8,50.0,94,30.13,10.0,Calm,Calm,-,N/A,,Clear,0,2012-11-20 06:55:00
1:15 AM,51.8,50.0,94,30.13,7.0,Calm,Calm,-,N/A,,Clear,0,2012-11-20 07:15:00
1:35 AM,51.8,50.0,94,30.14,7.0,NE,4.6,-,N/A,,Clear,40,2012-11-20 07:35:00
1:55 AM,51.8,48.2,88,30.15,10.0,Calm,Calm,-,N/A,,Clear,0,2012-11-20 07:55:00
2:15 AM,51.8,50.0,94,30.15,7.0,Calm,Calm,-,N/A,,Clear,0,2012-11-20 08:15:00
2:35 AM,50.0,48.2,94,30.15,7.0,Calm,Calm,-,N/A,,Clear,0,2012-11-20 08:35:00
5:55 AM,48.2,46.4,93,30.16,7.0,Calm,Calm,-,N/A,,Clear,0,2012-11-20 11:55:00
6:15 AM,46.4,44.6,93,30.17,5.0,Calm,Calm,-,N/A,,Clear,0,2012-11-20 12:15:00
6:35 AM,46.4,44.6,93,30.17,5.0,Calm,Calm,-,N/A,,Clear,0,2012-11-20 12:35:00
6:55 AM,46.4,44.6,93,30.18,5.0,Calm,Calm,-,N/A,,Clear,0,2012-11-20 12:55:00
7:15 AM,46.4,44.6,93,30.19,4.0,Calm,Calm,-,N/A,,Clear,0,2012-11-20 13:15:00
7:35 AM,48.2,46.4,93,30.19,7.0,NNE,3.5,-,N/A,,Clear,30,2012-11-20 13:35:00
7:55 AM,50.0,46.4,87,30.20,7.0,NE,3.5,-,N/A,,Clear,40,2012-11-20 13:55:00
8:15 AM,51.8,48.2,88,30.20,10.0,Calm,Calm,-,N/A,,Clear,0,2012-11-20 14:15:00
8:35 AM,53.6,50.0,88,30.21,10.0,Calm,Calm,-,N/A,,Clear,0,2012-11-20 14:35:00
8:55 AM,55.4,50.0,82,30.21,10.0,Calm,Calm,-,N/A,,Clear,0,2012-11-20 14:55:00
9:15 AM,59.0,50.0,72,30.22,10.0,Calm,Calm,-,N/A,,Clear,0,2012-11-20 15:15:00
8:55 PM,-9999,-9999,N/A,30.20,-9999.0,Calm,Calm,-,N/A,,Unknown,0,2012-11-21 02:55:00
9:15 PM,53.6,46.4,77,30.21,10.0,Calm,Calm,-,N/A,,Clear,0,2012-11-21 03:15:00
9:35 PM,53.6,46.4,77,30.21,10.0,Calm,Calm,-,N/A,,Clear,0,2012-11-21 03:35:00
9:55 PM,53.6,48.2,82,30.21,10.0,Calm,Calm,-,N/A,,Clear,0,2012-11-21 03:55:00
10:15 PM,53.6,48.2,82,30.21,10.0,Calm,Calm,-,N/A,,Clear,0,2012-11-21 04:15:00
10:35 PM,55.4,50.0,82,30.21,10.0,Calm,Calm,-,N/A,,Clear,0,2012-11-21 04:35:00
10:55 PM,53.6,48.2,82,30.21,10.0,Calm,Calm,-,N/A,,Clear,0,2012-11-21 04:55:00
11:15 PM,55.4,50.0,82,30.21,10.0,Calm,Calm,-,N/A,,Clear,0,2012-11-21 05:15:00
11:35 PM,55.4,50.0,82,30.21,10.0,Calm,Calm,-,N/A,,Clear,0,2012-11-21 05:35:00
11:55 PM,53.6,50.0,88,30.22,10.0,Calm,Calm,-,N/A,,Clear,0,2012-11-21 05:55:00